FW5260 Weather Reports


Display with metric or nautical units.
time (UTC)temp
F
wind
direction
speed
MPH
gust
MPH
rain 1hr
in
rain 24hr
in
rain mn
in
humidity
%
barometer
mb
20260505195536 53 276 2.0 3.0 0.00 0.02 0.02 99 1011.8
20260505194811 53 269 2.0 3.0 0.00 0.02 0.02 99 1011.7
20260505194535 52 238 2.0 3.0 0.00 0.02 0.02 99 1011.6
20260505193810 53 310 2.0 3.0 0.00 0.02 0.02 99 1011.4
20260505193314 53 295 2.0 3.0 0.00 0.02 0.02 99 1011.6
20260505192315 52 276 2.0 3.0 0.00 0.02 0.02 99 1011.5
20260505191813 53 250 1.0 3.0 0.00 0.02 0.02 99 1011.6
20260505191311 53 230 2.0 3.0 0.00 0.02 0.02 99 1011.4
20260505190810 52 288 1.0 3.0 0.00 0.02 0.02 99 1011.6
20260505190536 52 250 0.0 3.0 0.00 0.02 0.02 99 1011.5
20260505185809 52 231 2.0 3.0 0.00 0.02 0.02 99 1011.4
20260505185539 53 279 2.0 3.0 0.00 0.02 0.02 99 1011.2
20260505184809 52 246 2.0 3.0 0.00 0.02 0.02 99 1011.4
20260505184533 52 271 2.0 3.0 0.00 0.02 0.02 99 1011.6
20260505183809 52 252 2.0 3.0 0.00 0.02 0.02 99 1011.5
20260505183314 53 252 2.0 3.0 0.00 0.02 0.02 99 1011.4
20260505182314 52 250 0.0 3.0 0.00 0.02 0.02 99 1011.4
20260505181810 53 265 1.0 3.0 0.00 0.02 0.02 99 1011.1
20260505181314 53 242 2.0 3.0 0.00 0.02 0.02 99 1011.5
20260505180809 53 267 0.0 3.0 0.00 0.02 0.02 99 1011.2
20260505180314 53 283 0.0 3.0 0.00 0.02 0.02 99 1011.2
20260505175810 53 232 2.0 3.0 0.00 0.02 0.02 99 1011.1
20260505175531 53 287 2.0 3.0 0.00 0.02 0.02 99 1011.4
20260505173810 53 227 2.0 3.0 0.00 0.02 0.02 99 1011.4
20260505173533 53 205 2.0 4.0 0.00 0.02 0.02 99 1011.4
20260505173029 53 201 2.0 4.0 0.00 0.02 0.02 99 1011.6
20260505171312 53 224 2.0 3.0 0.00 0.02 0.02 99 1011.5
20260505170809 53 232 2.0 4.0 0.00 0.02 0.02 99 1011.5
20260505170544 53 259 0.0 4.0 0.00 0.02 0.02 99 1011.6
20260505165813 53 237 2.0 3.0 0.00 0.02 0.02 99 1011.6
20260505165312 53 249 3.0 3.0 0.00 0.02 0.02 99 1011.6
20260505165038 53 249 2.0 3.0 0.00 0.02 0.02 99 1011.7
20260505164311 53 275 0.0 4.0 0.00 0.02 0.02 99 1011.6
20260505163810 53 257 0.0 4.0 0.00 0.02 0.02 99 1011.5
20260505163537 53 222 1.0 3.0 0.00 0.02 0.02 99 1011.5
20260505162311 53 322 2.0 3.0 0.00 0.02 0.02 99 1011.8
20260505161809 53 214 2.0 4.0 0.00 0.02 0.02 99 1011.7
20260505161311 53 203 2.0 4.0 0.00 0.02 0.02 99 1011.7
20260505160809 53 213 1.0 4.0 0.00 0.02 0.02 99 1011.7
20260505153037 53 201 2.0 3.0 0.00 0.02 0.02 99 1011.9
20260505152311 54 188 2.0 2.0 0.00 0.02 0.02 99 1011.9
20260505152036 54 233 1.0 2.0 0.00 0.02 0.02 99 1011.9
20260505151314 54 252 0.0 3.0 0.00 0.02 0.02 99 1012.1
20260505150311 53 197 2.0 2.0 0.00 0.02 0.02 99 1012.1
20260505130312 54 227 2.0 4.0 0.00 0.02 0.02 97 1012.6
20260505125029 54 287 2.0 3.0 0.00 0.02 0.02 97 1012.5
20260505124315 54 269 0.0 3.0 0.00 0.02 0.02 97 1012.2
20260505123311 54 230 0.0 4.0 0.00 0.02 0.02 97 1012.3
20260505122810 54 198 0.0 4.0 0.00 0.02 0.02 96 1012.5
20260505121811 54 269 0.0 3.0 0.00 0.02 0.02 96 1012.3
20260505121310 54 207 1.0 3.0 0.00 0.02 0.02 96 1012.3
20260505121041 55 230 2.0 3.0 0.00 0.02 0.02 96 1012.4
20260505115809 54 106 1.0 3.0 0.00 0.02 0.02 96 1012.6
20260505115310 54 240 0.0 4.0 0.00 0.02 0.02 96 1012.5
20260505114538 54 282 0.0 3.0 0.00 0.02 0.02 96 1012.6
20260505113809 54 215 1.0 3.0 0.00 0.02 0.02 96 1012.7
20260505113313 54 10 2.0 3.0 0.00 0.02 0.02 96 1012.5
20260505112311 54 308 0.0 3.0 0.00 0.02 0.02 96 1012.7
20260505110809 54 260 2.0 4.0 0.00 0.02 0.02 95 1012.6
20260505110309 54 285 2.0 4.0 0.00 0.02 0.02 94 1012.8
20260505101809 56 247 0.0 2.0 0.00 0.02 0.02 94 1012.9
20260505101532 55 309 2.0 3.0 0.00 0.02 0.02 94 1012.7
20260505100314 55 267 1.0 4.0 0.00 0.02 0.02 94 1012.9
20260505100030 55 240 2.0 4.0 0.00 0.02 0.02 94 1012.8
20260505095529 55 247 2.0 4.0 0.00 0.02 0.02 93 1012.9
20260505094533 55 275 1.0 3.0 0.00 0.02 0.02 95 1012.9
20260505092809 55 227 1.0 4.0 0.00 0.02 0.02 95 1012.8
20260505092310 54 275 2.0 4.0 0.00 0.02 0.02 95 1012.8
20260505092025 54 243 2.0 3.0 0.00 0.02 0.02 96 1012.8
20260505091032 54 268 1.0 4.0 0.00 0.02 0.02 96 1012.5
20260505090527 54 108 1.0 4.0 0.00 0.02 0.02 96 1012.6
20260505085811 53 245 2.0 4.0 0.00 0.02 0.02 96 1012.6
20260505085536 53 274 2.0 4.0 0.00 0.02 0.02 96 1012.7
20260505084310 53 290 1.0 5.0 0.00 0.02 0.02 96 1012.5
20260505083809 53 292 3.0 5.0 0.00 0.02 0.02 96 1012.7
20260505083312 53 314 0.0 4.0 0.00 0.02 0.02 96 1012.5
20260505082808 53 297 2.0 4.0 0.00 0.02 0.02 97 1012.3
20260505082537 53 277 3.0 4.0 0.00 0.02 0.02 96 1012.5
20260505081809 53 236 1.0 8.0 0.00 0.02 0.02 96 1012.4
20260505081310 53 322 2.0 8.0 0.00 0.02 0.02 96 1012.3
20260505080812 53 283 2.0 6.0 0.00 0.02 0.02 96 1012.6
20260505080314 52 324 3.0 7.0 0.00 0.02 0.02 96 1012.4
20260505075809 52 325 5.0 7.0 0.00 0.02 0.02 97 1012.3
20260505075310 53 327 3.0 5.0 0.00 0.02 0.02 97 1012.6
20260505075032 53 322 2.0 5.0 0.00 0.02 0.02 97 1012.5
20260505074532 53 297 2.0 6.0 0.00 0.02 0.02 97 1012.5
20260505073809 52 292 2.0 6.0 0.00 0.02 0.02 98 1012.5
20260505073026 53 60 0.0 4.0 0.00 0.02 0.02 98 1012.8
20260505072538 52 170 3.0 4.0 0.00 0.02 0.02 98 1012.9
20260505071310 52 124 0.0 4.0 0.00 0.02 0.02 97 1012.8
20260505070809 52 217 2.0 4.0 0.00 0.02 0.02 97 1012.7
20260505070314 53 215 0.0 4.0 0.00 0.02 0.02 97 1012.8
20260505070031 53 245 3.0 5.0 0.00 0.02 0.02 97 1012.5
20260505065314 53 156 2.0 8.0 0.00 0.02 0.02 97 1012.0
20260505064311 53 81 0.0 5.0 0.00 0.02 0.02 97 1012.3
20260505063809 53 50 1.0 4.0 0.00 0.02 0.02 97 1012.3
20260505063534 53 219 2.0 4.0 0.00 0.02 0.02 97 1012.3
20260505062809 53 240 3.0 4.0 0.00 0.02 0.02 96 1012.4
20260505061809 53 353 2.0 6.0 0.00 0.02 0.02 96 1012.5
20260505061311 53 41 1.0 5.0 0.00 0.02 0.02 96 1012.4
20260505060809 53 161 1.0 6.0 0.00 0.02 0.02 96 1012.3
20260505060310 53 261 3.0 6.0 0.00 0.02 0.02 96 1012.1
20260505055809 53 237 1.0 4.0 0.00 0.02 0.02 96 1012.0
20260505055311 53 277 3.0 4.0 0.00 0.02 0.02 95 1012.1
20260505054033 53 221 0.0 4.0 0.00 0.02 0.02 95 1012.2
20260505053532 53 200 2.0 3.0 0.00 0.02 0.02 95 1011.8
20260505052809 53 167 2.0 4.0 0.01 0.02 0.02 94 1012.0
20260505052310 53 79 0.0 4.0 0.01 0.02 0.02 94 1011.9
20260505052031 53 257 2.0 4.0 0.01 0.02 0.02 95 1011.8
20260505051531 53 300 2.0 5.0 0.02 0.02 0.02 95 1011.9
20260505050809 53 71 1.0 5.0 0.02 0.02 0.02 95 1011.8
20260505041310 55 290 2.0 4.0 0.01 0.01 0.01 87 1011.8
20260505035809 55 253 1.0 4.0 0.00 0.00 0.00 82 1011.6
20260505034809 57 287 2.0 3.0 0.00 0.00 0.00 77 1011.5
20260505034529 57 243 2.0 4.0 0.00 0.00 0.00 74 1011.5
20260505033808 56 228 2.0 4.0 0.00 0.00 0.00 72 1011.5
20260505033313 56 226 2.0 3.0 0.00 0.00 0.00 75 1011.5
20260505032029 56 354 0.0 2.0 0.00 0.00 0.00 80 1011.7
20260505031524 56 219 1.0 3.0 0.00 0.00 0.00 82 1011.5
20260505031024 56 228 0.0 3.0 0.00 0.00 0.00 80 1011.5
20260505030531 56 320 2.0 3.0 0.00 0.00 0.00 80 1011.6
20260505030020 57 124 0.0 3.0 0.00 0.00 0.00 79 1011.4
20260505024300 57 147 0.0 4.0 0.00 0.00 0.00 76 1011.9
20260505023300 57 278 2.0 3.0 0.00 0.00 0.00 78 1011.9
20260505023021 57 351 0.0 3.0 0.00 0.00 0.00 79 1012.3
20260505022304 57 301 1.0 2.0 0.00 0.00 0.00 82 1012.4
20260505022027 58 262 1.0 2.0 0.00 0.00 0.00 81 1012.4
20260505021525 58 268 1.0 2.0 0.00 0.00 0.00 79 1012.3
20260505021019 58 283 1.0 2.0 0.00 0.00 0.00 79 1012.5
20260505020306 58 256 1.0 3.0 0.00 0.00 0.00 74 1012.5
20260505015759 58 314 0.0 3.0 0.00 0.00 0.00 73 1012.6
20260505015308 58 194 0.0 3.0 0.00 0.00 0.00 73 1012.4
20260505014758 58 345 0.0 3.0 0.00 0.00 0.00 73 1012.5
20260505014301 58 317 1.0 4.0 0.00 0.00 0.00 73 1012.3
20260505013758 58 320 2.0 4.0 0.00 0.00 0.00 73 1012.5
20260505013302 58 286 1.0 4.0 0.00 0.00 0.00 72 1012.3
20260505012758 58 253 1.0 3.0 0.00 0.00 0.00 72 1012.3
20260505012304 58 302 0.0 3.0 0.00 0.00 0.00 72 1012.7
20260505012017 58 241 2.0 3.0 0.00 0.00 0.00 71 1012.8
20260505011019 58 205 2.0 4.0 0.00 0.00 0.00 72 1013.0
20260505010307 58 236 2.0 5.0 0.00 0.00 0.00 70 1013.1
20260505005759 58 196 2.0 5.0 0.00 0.00 0.00 70 1013.1
20260505005308 58 263 2.0 4.0 0.00 0.00 0.00 71 1013.3
20260505004759 58 192 2.0 4.0 0.00 0.00 0.00 70 1013.2
20260505004528 58 224 2.0 4.0 0.00 0.00 0.00 69 1013.2
20260505003758 58 315 2.0 3.0 0.00 0.00 0.00 71 1013.4
20260505003521 58 203 0.0 3.0 0.00 0.00 0.00 70 1013.9
20260505002759 58 305 2.0 3.0 0.00 0.00 0.00 69 1013.6
20260505002535 58 257 2.0 3.0 0.00 0.00 0.00 69 1013.8
20260505001758 58 284 2.0 3.0 0.00 0.00 0.00 70 1013.8
20260505001305 58 273 2.0 2.0 0.00 0.00 0.00 70 1013.9
20260505001019 58 278 1.0 2.0 0.00 0.00 0.00 70 1013.9
20260505000304 59 278 2.0 2.0 0.00 0.00 0.00 67 1014.0
20260504235758 59 252 0.0 2.0 0.00 0.00 0.00 68 1014.2
20260504235305 59 233 2.0 3.0 0.00 0.00 0.00 68 1014.1
20260504235020 59 191 0.0 4.0 0.00 0.00 0.00 67 1013.9
20260504234526 59 160 0.0 6.0 0.00 0.00 0.00 67 1014.1
20260504233524 59 260 2.0 5.0 0.00 0.00 0.00 67 1014.3
20260504232802 59 223 4.0 5.0 0.00 0.00 0.00 66 1014.3
20260504232017 59 276 3.0 4.0 0.00 0.00 0.00 65 1014.3
20260504231300 59 317 2.0 4.0 0.00 0.00 0.00 67 1014.2
20260504230759 59 272 1.0 4.0 0.00 0.00 0.00 66 1014.3
20260504230518 59 258 2.0 6.0 0.00 0.00 0.00 66 1014.4
20260504230017 59 233 4.0 6.0 0.00 0.00 0.00 66 1014.5
20260504225301 59 322 2.0 4.0 0.00 0.00 0.00 66 1014.5
20260504224759 59 279 2.0 4.0 0.00 0.00 0.00 65 1014.7
20260504223759 59 327 0.0 4.0 0.00 0.00 0.00 66 1014.6
20260504223300 59 228 3.0 4.0 0.00 0.00 0.00 66 1014.6
20260504222527 59 325 2.0 5.0 0.00 0.00 0.00 67 1014.8
20260504221759 59 269 2.0 5.0 0.00 0.00 0.00 65 1014.8
20260504221529 59 261 2.0 5.0 0.00 0.00 0.00 65 1014.8
20260504221030 59 328 2.0 5.0 0.00 0.00 0.00 65 1015.0
20260504220534 59 253 4.0 5.0 0.00 0.00 0.00 65 1015.2
20260504215759 59 328 2.0 5.0 0.00 0.00 0.00 66 1015.1
20260504215522 59 317 1.0 5.0 0.00 0.00 0.00 65 1015.2
20260504214802 60 323 1.0 4.0 0.00 0.00 0.00 65 1015.0
20260504214519 60 289 3.0 5.0 0.00 0.00 0.00 64 1015.2
20260504213759 60 285 2.0 6.0 0.00 0.00 0.00 64 1015.1
20260504212759 60 242 1.0 5.0 0.00 0.00 0.00 64 1015.4
20260504212300 60 316 4.0 5.0 0.00 0.00 0.00 62 1015.3
20260504211759 61 255 2.0 5.0 0.00 0.00 0.00 61 1015.3
20260504211525 61 267 2.0 5.0 0.00 0.00 0.00 61 1015.5
20260504210300 61 241 2.0 5.0 0.00 0.00 0.00 61 1015.6
20260504205533 61 226 0.0 4.0 0.00 0.00 0.00 61 1015.5
20260504205033 61 260 2.0 3.0 0.00 0.00 0.00 62 1015.6
20260504204301 61 224 2.0 3.0 0.00 0.00 0.00 62 1015.7
20260504203759 61 231 0.0 3.0 0.00 0.00 0.00 63 1015.4
20260504203301 61 206 3.0 4.0 0.00 0.00 0.00 62 1015.5
20260504203017 61 202 0.0 4.0 0.00 0.00 0.00 62 1015.7
20260504202301 61 235 2.0 4.0 0.00 0.00 0.00 61 1015.6
20260504201759 61 267 2.0 4.0 0.00 0.00 0.00 61 1015.4
20260504201300 62 153 0.0 4.0 0.00 0.00 0.00 60 1015.5
20260504200300 62 256 2.0 3.0 0.00 0.00 0.00 60 1015.4